Redwood Falls, MN

6:00 AM CDT on August 17, 2017 (GMT -0500)
Redwood Falls Municipal

Weather History for KRWF - June, 2013

Change the Weather History Date:

Sunday, June 23, 2013

  Actual Average Record
Temperature  
Mean Temperature 74 °F -  
Max Temperature 81 °F 81 °F 102 °F (1937)
Min Temperature 66 °F 59 °F 41 °F (1942)
Cooling Degree Days 8    
Growing Degree Days 24 (Base 50)    
Moisture  
Dew Point 65 °F    
Average Humidity 80    
Maximum Humidity 96    
Minimum Humidity 52    
Precipitation  
Precipitation 0.88 in - - ()
Sea Level Pressure  
Sea Level Pressure 29.75 in    
Wind  
Wind Speed 10 mph (West)    
Max Wind Speed 17 mph    
Max Gust Speed 47 mph    
Visibility 8 miles    
Events Rain , Thunderstorm    
Averages and records for this station are not official NWS values.
T = Trace of Precipitation, MM = Missing Value Source: NWS Daily Summary

Daily Weather History Graph

Daily Weather History Graph

Search for Another Location

Airport or City:

Trip Planner

Search our weather history database for the weather conditions in past years. The results will help you decide how hot, cold, wet, or windy it might be!

Date:

Astronomy

Jun. 23, 2013 Rise Set
Actual Time 5:35 AM CDT 9:09 PM CDT
Civil Twilight 4:59 AM CDT 9:46 PM CDT
Nautical Twilight 4:10 AM CDT 10:35 PM CDT
Astronomical Twilight 3:06 AM CDT 11:38 PM CDT
Moon 9:18 PM CDT (6/23) 5:57 AM CDT (6/23)
Length of Visible Light 16h 47m
Length of Day
15h 33m
Full, 100% of the Moon is Illuminated
Jun 23
Full
Jun 29
Last Quarter
Jul 8
New
Jul 15
First Quarter
Jul 22
Full

Hourly Weather History & Observations

Time (CDT) Temp. Heat Index Dew Point Humidity Pressure Visibility Wind Dir Wind Speed Gust Speed Precip Events Conditions
12:53 AM 73.0 °F - 71.1 °F 93% 29.73 in 10.0 mi SE 15.0 mph - 0.01 in Rain , Thunderstorm Light Rain
1:23 AM 75.2 °F - 69.8 °F 83% 29.78 in 2.5 mi WSW 17.3 mph 47.2 mph 0.11 in Rain , Thunderstorm Heavy Thunderstorms and Rain
1:26 AM 73.4 °F - 66.2 °F 78% 29.79 in 1.8 mi WSW 12.7 mph 47.2 mph 0.20 in Rain , Thunderstorm Heavy Thunderstorms and Rain
1:34 AM 71.6 °F - 64.4 °F 78% 29.79 in 2.0 mi WNW 6.9 mph - 0.26 in Rain , Thunderstorm Thunderstorms and Rain
1:37 AM 71.6 °F - 64.4 °F 78% 29.79 in 3.0 mi NW 9.2 mph - 0.27 in Rain , Thunderstorm Thunderstorms and Rain
1:53 AM 68.0 °F - 64.9 °F 90% 29.78 in 3.0 mi WNW 9.2 mph - 0.44 in Rain , Thunderstorm Heavy Thunderstorms and Rain
2:06 AM 66.2 °F - 64.4 °F 94% 29.75 in 2.5 mi North 5.8 mph - 0.16 in Rain , Thunderstorm Heavy Thunderstorms and Rain
2:21 AM 66.2 °F - 62.6 °F 88% 29.76 in 5.0 mi NNE 3.5 mph - 0.23 in Rain , Thunderstorm Thunderstorms and Rain
2:53 AM 66.0 °F - 64.0 °F 93% 29.71 in 10.0 mi East 5.8 mph - 0.29 in   Overcast
3:53 AM 69.1 °F - 68.0 °F 96% 29.67 in 10.0 mi Calm Calm - N/A   Overcast
4:04 AM 69.8 °F - 68.0 °F 94% 29.69 in 6.0 mi Calm Calm - 0.02 in Rain , Thunderstorm Light Rain
4:15 AM 71.6 °F - 69.8 °F 94% 29.67 in 2.5 mi South 10.4 mph 18.4 mph 0.10 in Rain , Thunderstorm Rain
4:22 AM 71.6 °F - 69.8 °F 94% 29.68 in 6.0 mi South 11.5 mph 18.4 mph 0.11 in Rain , Thunderstorm Light Thunderstorms and Rain
4:35 AM 69.8 °F - 66.2 °F 88% 29.68 in 7.0 mi NNW 12.7 mph 24.2 mph 0.13 in Rain , Thunderstorm Light Rain
4:48 AM 66.2 °F - 64.4 °F 94% 29.68 in 10.0 mi NW 13.8 mph 21.9 mph 0.13 in Rain , Thunderstorm Light Rain
4:53 AM 66.9 °F - 64.9 °F 93% 29.66 in 10.0 mi North 13.8 mph 21.9 mph 0.13 in Rain Light Rain
5:12 AM 66.2 °F - 64.4 °F 94% 29.66 in 10.0 mi Variable 5.8 mph - 0.01 in Rain Light Rain
5:53 AM 66.0 °F - 64.9 °F 96% 29.69 in 10.0 mi East 4.6 mph - 0.01 in   Mostly Cloudy
6:53 AM 66.0 °F - 64.9 °F 96% 29.67 in 10.0 mi SSW 5.8 mph - N/A   Clear
7:53 AM 66.0 °F - 64.9 °F 96% 29.70 in 10.0 mi WSW 10.4 mph - N/A   Clear
8:53 AM 68.0 °F - 64.9 °F 90% 29.72 in 10.0 mi West 15.0 mph - N/A   Clear
9:53 AM 72.0 °F - 64.0 °F 76% 29.73 in 10.0 mi West 16.1 mph 27.6 mph N/A   Clear
10:53 AM 73.9 °F - 64.9 °F 73% 29.75 in 10.0 mi West 17.3 mph 24.2 mph N/A   Clear
11:53 AM 75.0 °F - 66.0 °F 73% 29.77 in 10.0 mi West 11.5 mph - N/A   Clear
12:53 PM 75.9 °F - 66.0 °F 71% 29.78 in 10.0 mi WSW 11.5 mph - N/A   Clear
1:53 PM 79.0 °F - 64.0 °F 60% 29.80 in 10.0 mi WSW 15.0 mph 21.9 mph N/A   Clear
2:53 PM 79.0 °F - 64.0 °F 60% 29.79 in 10.0 mi West 15.0 mph - N/A   Scattered Clouds
3:53 PM 81.0 °F 82.2 °F 63.0 °F 54% 29.79 in 10.0 mi WSW 10.4 mph - N/A   Partly Cloudy
4:53 PM 80.1 °F 81.5 °F 63.0 °F 56% 29.81 in 10.0 mi West 11.5 mph - N/A   Clear
5:53 PM 80.1 °F 81.2 °F 62.1 °F 54% 29.81 in 10.0 mi West 11.5 mph - N/A   Clear
6:53 PM 80.1 °F 81.2 °F 62.1 °F 54% 29.82 in 10.0 mi West 6.9 mph - N/A   Clear
7:53 PM 78.1 °F - 59.0 °F 52% 29.83 in 10.0 mi West 8.1 mph - N/A   Clear
8:53 PM 73.9 °F - 62.1 °F 66% 29.83 in 10.0 mi WNW 5.8 mph - N/A   Clear
9:53 PM 73.0 °F - 62.1 °F 68% 29.85 in 10.0 mi Calm Calm - N/A   Clear
10:53 PM 69.1 °F - 63.0 °F 81% 29.87 in 10.0 mi Calm Calm - N/A   Clear
11:53 PM 66.9 °F - 63.0 °F 87% 29.88 in 10.0 mi South 3.5 mph - N/A   Clear